Estherville, IA

8:55 PM CST on February 24, 2017 (GMT -0600)
Estherville Municipal

Weather History for KEST - June, 2013

Change the Weather History Date:

Tuesday, June 11, 2013

  Actual Average Record
Temperature  
Mean Temperature 73 °F 67 °F  
Max Temperature 86 °F 78 °F 97 °F (1977)
Min Temperature 59 °F 56 °F 40 °F (1958)
Degree Days  
Heating Degree Days 0 2  
Month to date heating degree days 54 27  
Since 1 June heating degree days 54 27  
Since 1 July heating degree days 7910 7725  
Cooling Degree Days 8 4  
Month to date cooling degree days 9 33  
Year to date cooling degree days 42 69  
Since 1 June cooling degree days 9 33  
Growing Degree Days 23 (Base 50)    
Moisture  
Dew Point 64 °F    
Average Humidity 73    
Maximum Humidity 97    
Minimum Humidity 48    
Precipitation  
Precipitation 0.00 in 0.14 in 1.86 in (2002)
Month to date precipitation 1.56 1.62  
Sea Level Pressure  
Sea Level Pressure 29.82 in    
Wind  
Wind Speed 8 mph (ESE)    
Max Wind Speed 18 mph    
Max Gust Speed 23 mph    
Visibility 9 miles    
Events Thunderstorm    
T = Trace of Precipitation, MM = Missing Value Source: NWS Daily Summary

Daily Weather History Graph

Daily Weather History Graph

Search for Another Location

Airport or City:

Trip Planner

Search our weather history database for the weather conditions in past years. The results will help you decide how hot, cold, wet, or windy it might be!

Date:

Astronomy

Jun. 11, 2013 Rise Set
Actual Time 5:37 AM CDT 8:59 PM CDT
Civil Twilight 5:02 AM CDT 9:35 PM CDT
Nautical Twilight 4:16 AM CDT 10:21 PM CDT
Astronomical Twilight 3:18 AM CDT 11:19 PM CDT
Moon 8:25 AM CDT (6/11) 10:58 PM CDT (6/11)
Length of Visible Light 16h 32m
Length of Day
15h 21m
Waxing Crescent, 8% of the Moon is Illuminated
Jun 11
Waxing Crescent
Jun 16
First Quarter
Jun 23
Full
Jun 29
Last Quarter
Jul 8
New

Hourly Weather History & Observations

Time (CDT) Temp. Heat Index Dew Point Humidity Pressure Visibility Wind Dir Wind Speed Gust Speed Precip Events Conditions
12:52 AM 62.1 °F - 59.0 °F 90% 29.83 in 8.0 mi South 12.7 mph - N/A   Clear
1:52 AM 64.0 °F - 60.1 °F 87% 29.85 in 10.0 mi SSW 8.1 mph - N/A   Clear
2:52 AM 61.0 °F - 59.0 °F 93% 29.83 in 9.0 mi South 5.8 mph - N/A   Clear
3:52 AM 61.0 °F - 59.0 °F 93% 29.83 in 8.0 mi South 5.8 mph - N/A   Clear
4:52 AM 62.1 °F - 59.0 °F 90% 29.80 in 8.0 mi Calm Calm - N/A   Clear
5:52 AM 60.1 °F - 59.0 °F 96% 29.83 in 1.5 mi Calm Calm - N/A   Clear
5:56 AM 60.8 °F - 59.0 °F 94% 29.84 in 3.0 mi Calm Calm - N/A   Clear
6:52 AM 63.0 °F - 61.0 °F 93% 29.86 in 6.0 mi Calm Calm - N/A   Clear
7:52 AM 66.9 °F - 62.1 °F 84% 29.84 in 9.0 mi Calm Calm - N/A   Clear
8:52 AM 70.0 °F - 64.0 °F 81% 29.85 in 10.0 mi East 3.5 mph - N/A   Clear
9:52 AM 73.0 °F - 64.9 °F 76% 29.87 in 10.0 mi NE 4.6 mph - N/A   Clear
10:52 AM 75.0 °F - 66.0 °F 73% 29.85 in 10.0 mi ESE 5.8 mph - N/A   Clear
11:52 AM 73.9 °F - 66.0 °F 76% 29.87 in 10.0 mi NNE 10.4 mph - N/A   Clear
12:52 PM 79.0 °F - 66.0 °F 64% 29.85 in 10.0 mi ESE 9.2 mph - N/A   Clear
1:52 PM 77.0 °F - 63.0 °F 62% 29.77 in 10.0 mi SE 18.4 mph - N/A   Partly Cloudy
2:52 PM 81.0 °F 82.7 °F 64.9 °F 58% 29.80 in 10.0 mi SE 12.7 mph - N/A   Clear
3:52 PM 84.0 °F 86.3 °F 66.0 °F 55% 29.81 in 10.0 mi SE 11.5 mph - N/A   Clear
4:52 PM 86.0 °F 87.6 °F 64.9 °F 49% 29.81 in 10.0 mi ESE 8.1 mph - N/A   Clear
5:52 PM 86.0 °F 87.6 °F 64.9 °F 49% 29.78 in 10.0 mi SE 15.0 mph 20.7 mph N/A   Clear
6:52 PM 84.9 °F 86.1 °F 64.0 °F 49% 29.77 in 10.0 mi SE 11.5 mph - N/A   Clear
7:52 PM 81.0 °F 82.7 °F 64.9 °F 58% 29.80 in 10.0 mi Calm Calm - N/A   Clear
8:28 PM 80.6 °F 82.3 °F 64.4 °F 58% 29.77 in 10.0 mi SE 8.1 mph - N/A   Partly Cloudy
8:52 PM 79.0 °F - 66.0 °F 64% 29.78 in 10.0 mi ENE 3.5 mph - N/A   Clear
9:02 PM 77.0 °F - 66.2 °F 69% 29.80 in 10.0 mi NE 6.9 mph - N/A Thunderstorm Partly Cloudy
9:19 PM 78.8 °F - 66.2 °F 65% 29.82 in 10.0 mi East 4.6 mph - N/A   Clear
9:52 PM 75.0 °F - 66.0 °F 73% 29.79 in 10.0 mi ENE 6.9 mph - N/A   Clear
10:52 PM 73.9 °F - 66.9 °F 79% 29.81 in 10.0 mi ENE 13.8 mph - N/A   Clear
11:52 PM 72.0 °F - 66.9 °F 84% 29.80 in 10.0 mi ENE 16.1 mph - N/A   Scattered Clouds